Location: Habighorst
(52.7089°N, 10.2278°E)
Time: 00:12:43
(UTC+00:00)

Cosmos 1500 Rocket - Pass Details

Date: 13 January 2026
Orbit: 597 x 623 km, 82.5° (Epoch: 17 February)

Event Time Altitude Azimuth Distance (km) Brightness Sun altitude
Rises 05:44:18 0° 202° (SSW) 2,853 6.9 -14.5°
Reaches altitude 10° 05:46:33 10° 207° (SSW) 1,958 6.0 -14.2°
Maximum altitude 05:50:48 54° 285° (WNW) 753 3.6 -13.6°
Drops below altitude 10° 05:55:07 10° 3° (N) 1,990 6.0 -12.9°
Sets 05:57:25 0° 8° (N) 2,905 6.9 -12.6°
